This demonstration page uses our WeatherBlox Daily Observations layout. Learn more.

Left ArrowRight Arrow

Hourly Observations for November 28, 2018

Temp ( °F °C ) Dew Point ( °F °C ) Humidity (%) Winds ( mph kmh ) Pressure ( in mb ) Visibility ( mi km ) Precip ( " mm )
12:53 am 00:53 Cloudy 23 -5 17 -8.3 78 78 W 9 15 30.06 1018 10 16 N/A
1:53 am 01:53 Cloudy 23 -5 17 -8.3 78 78 W 10 17 30.06 1018 10 16 N/A
2:53 am 02:53 Cloudy with Light Snow 23 -5 18 -7.8 81 81 W 10 17 30.08 1019 9 14 N/A
3:53 am 03:53 Cloudy 23 -5 16 -8.9 74 74 W 10 17 30.09 1019 10 16 N/A
4:53 am 04:53 Cloudy 22 -5.6 15 -9.4 75 75 W 10 17 30.10 1019 10 16 N/A
5:32 am 05:32 Cloudy 22 -5.6 15 -9.4 75 75 W 7 11 30.12 1020 10 16 N/A
5:53 am 05:53 Cloudy 22 -5.6 15 -9.4 75 75 W 10 17 30.11 1020 10 16 N/A
6:33 am 06:33 Partly Cloudy 22 -5.6 14 -10 71 71 W 8 13 30.12 1020 10 16 N/A
6:53 am 06:53 Mostly Clear 21 -6.1 15 -9.4 78 78 W 8 13 30.13 1020 10 16 N/A
7:53 am 07:53 Sunny 20 -6.7 14 -10 78 78 W 6 9 30.15 1021 10 16 N/A
8:53 am 08:53 Sunny 21 -6.1 15 -9.4 78 78 W 8 13 30.17 1022 10 16 N/A
9:53 am 09:53 Mostly Sunny 23 -5 15 -9.4 72 72 W 7 11 30.18 1022 10 16 N/A
10:53 am 10:53 Sunny 25 -3.9 17 -8.3 72 72 W 5 7 30.18 1022 10 16 N/A
11:53 am 11:53 Partly Cloudy 26 -3.3 18 -7.8 71 71 W 6 9 30.16 1021 10 16 N/A
12:02 pm 12:02 Mostly Cloudy 27 -2.8 17 -8.3 66 66 WSW 9 15 30.15 1021 10 16 N/A
12:53 pm 12:53 Cloudy 27 -2.8 18 -7.8 69 69 W 7 11 30.14 1021 10 16 N/A
1:53 pm 13:53 Cloudy 27 -2.8 18 -7.8 69 69 W 8 13 30.14 1021 10 16 N/A
2:53 pm 14:53 Cloudy 28 -2.2 18 -7.8 66 66 W 6 9 30.14 1021 10 16 N/A
3:51 pm 15:51 Cloudy 28 -2 19 -7 69 69 WNW 6 9 30.15 1021 10 16 N/A
3:53 pm 15:53 Cloudy 29 -1.7 19 -7.2 66 66 WNW 5 7 30.15 1021 10 16 N/A
4:53 pm 16:53 Mostly Cloudy 28 -2.2 19 -7.2 69 69 NNW 3 6 30.14 1021 10 16 N/A
5:53 pm 17:53 Mostly Clear 25 -3.9 19 -7.2 78 78 N N/A 30.14 1021 10 16 N/A
6:53 pm 18:53 Clear 23 -5 19 -7.2 85 85 N N/A 30.15 1021 10 16 N/A
7:53 pm 19:53 Clear 22 -5.6 18 -7.8 85 85 N N/A 30.15 1021 10 16 N/A
8:53 pm 20:53 Clear 24 -4.4 19 -7.2 81 81 N N/A 30.16 1021 10 16 N/A
9:53 pm 21:53 Partly Cloudy 25 -3.9 20 -6.7 81 81 E 5 7 30.14 1021 10 16 N/A
10:53 pm 22:53 Mostly Cloudy 25 -3.9 21 -6.1 85 85 N N/A 30.12 1020 10 16 N/A
11:53 pm 23:53 Cloudy 28 -2.2 21 -6.1 75 75 N N/A 30.13 1020 10 16 N/A

Powered by AerisWeather